Overview Statistics Trail Chart Weather Telemetry Raw packets
 

This is the latest recevied weather packets stored in our database for station/object VU3OPX-13. If no packets are shown the sender has not sent any weather packets the latest 10 day(s).

<< 13 14 15 16 17 18 19 >>
Time Temp. Humidity Pressure Rain* Wind** Luminosity Snow
1787715869 25.56° C 75% 1012 hPa 0 mm - - -
1787714081 24.44° C 81% 1012 hPa 0 mm - - -
1787712294 23.89° C 81% 1012 hPa 0 mm - - -
1787710506 22.78° C 90% 1012 hPa 0 mm - - -
1787708719 22.78° C 90% 1012 hPa 0 mm - - -
1787706932 21.67° C 95% 1011 hPa 0 mm - - -
1787705145 21.67° C 95% 1011 hPa 0 mm - - -
1787703357 21.11° C 95% 1011 hPa 0 mm - - -
1787701570 21.11° C 95% 1011 hPa 0 mm - - -
1787699783 21.11° C 94% 1010 hPa 0 mm - - -
1787697996 21.11° C 94% 1010 hPa 0 mm - - -
1787696209 21.11° C 94% 1010 hPa 0 mm - - -
1787694421 21.11° C 94% 1010 hPa 0 mm - - -
1787692634 21.11° C 94% 1010 hPa 0 mm - - -
1787690847 21.11° C 94% 1010 hPa 0 mm - - -
1787689060 21.67° C 93% 1011 hPa 0 mm - - -
1787687272 21.67° C 93% 1011 hPa 0 mm - - -
1787685485 21.67° C 92% 1012 hPa 0 mm - - -
1787683698 21.67° C 90% 1012 hPa 0 mm - - -
1787681911 22.22° C 91% 1012 hPa 0 mm - - -
1787680124 22.22° C 91% 1012 hPa 0 mm - - -
1787678336 22.22° C 90% 1013 hPa 0 mm - - -
1787676549 22.22° C 90% 1013 hPa 0 mm - - -
1787674761 22.22° C 90% 1012 hPa 0 mm - - -
1787672974 22.78° C 90% 1012 hPa 0 mm - - -

* Rain latest hour (hover to see other rain measurements)
** Current wind speed in m/s (hover to see current wind gust speed)